Miscellaneous Local Product
Issued by NWS Hastings, NE

Home | Current Version | Previous Version | Graphics & Text | Print | Product List | Glossary On
Versions: 1 2 3 4 5 6 7 8 9 10 11 12 13 14 15 16 17 18 19 20 21 22 23 24 25 26 27 28 29 30 31 32 33 34 35 36 37 38 39 40 41 42 43 44 45 46 47 48 49 50
994
AXUS43 KGID 211302
MISGRI

GID CWA HOURLY WEATHER ROUNDUP
NATIONAL WEATHER SERVICE HASTINGS NE
800 AM CDT SAT APR 21 2018

NOTE: "FAIR" INDICATES FEW OR NO CLOUDS BELOW 12,000 FEET WITH NO
SIGNIFICANT WEATHER AND/OR OBSTRUCTIONS TO VISIBILITY.

...SOUTH CENTRAL NEBRASKA...

CITY           SKY/WX    TMP DP  RH WIND       PRES   REMARKS
GRAND ISLAND   CLOUDY    42  39  89 NE9       30.27R
KEARNEY        CLOUDY    40  38  93 NE10      30.24R WCI  33
HASTINGS       CLOUDY    42  39  89 E12       30.23S
ORD            CLOUDY    40  39  97 N3        30.26S FOG
YORK             N/A     41  39  93 E6        30.27R
AURORA         CLOUDY    42  40  93 NE7       30.27R
LEXINGTON      CLOUDY    40  38  93 NE6       30.24R
HOLDREGE       CLOUDY    40  39  97 NE10      30.23R WCI  34
HEBRON         DRIZZLE   44  40  85 E5        30.24S

...NEBRASKA PANHANDLE...

CITY           SKY/WX    TMP DP  RH WIND       PRES   REMARKS
CHADRON        CLOUDY    39  35  86 CALM      30.22R
ALLIANCE       LGT SNOW  32  32 100 SE3       30.21R FOG
SCOTTSBLUFF    CLOUDY    34  32  92 SE6       30.20S HAZE    WCI  29
SIDNEY         LGT SNOW  33  32  96 E6        30.19S VSB 1   WCI  28

...WESTERN AND NORTH CENTRAL NEBRASKA...

CITY           SKY/WX    TMP DP  RH WIND       PRES   REMARKS
VALENTINE      LGT RAIN  41  38  89 SE7       30.29R
AINSWORTH      DRIZZLE   38  38  99 S3        30.29S
ONEILL         CLOUDY    42  40  89 N6        30.31R
BROKEN BOW     LGT RAIN  40  37  89 N5        30.24S
IMPERIAL       CLOUDY    38  38 100 E9        30.20S WCI  31
NORTH PLATTE   CLOUDY    39  36  89 E8        30.24R WCI  33
MCCOOK         CLOUDY    40  40 100 NE8       30.21R FOG     WCI  34

...EASTERN NEBRASKA...

CITY           SKY/WX    TMP DP  RH WIND       PRES   REMARKS
NORFOLK        CLOUDY    44  36  73 E5        30.28R
SO SIOUX CITY  CLOUDY    43  34  70 E5        30.33R
TEKAMAH        CLOUDY    43  37  79 N7        30.31R
COLUMBUS       CLOUDY    44  32  62 E8        30.30R
ALBION         CLOUDY    42  38  84 NE3       30.28S
OMAHA EPPLEY   CLOUDY    49  27  42 VRB6      30.30R
OFFUTT AFB     CLOUDY    48  27  43 E10       30.28R
MILLARD        CLOUDY    50  29  43 E6        30.28S
LINCOLN        CLOUDY    50  26  39 SE5       30.29R
NEBRASKA CITY  RAIN      48  31  52 SE7       30.28S
BEATRICE       CLOUDY    49  37  61 SE7       30.27R
FALLS CITY     CLOUDY    45  38  76 E3        30.26F

...NORTHERN KANSAS...

CITY           SKY/WX    TMP DP  RH WIND       PRES   REMARKS
GOODLAND       CLOUDY    37  36  96 E12       30.14S WCI  29
HILL CITY      CLOUDY    42  41  96 NE13      30.20R
NORTON         DRIZZLE   39  39 100 NE7       30.20R WCI  34
PHILLIPSBURG   LGT RAIN  43  43 100 NE8       30.21F
SMITH CENTER   CLOUDY    41  39  93 E6        30.23R
BELOIT         CLOUDY    43  37  81 CALM      30.22R
HAYS           LGT RAIN  43  41  93 NE14      30.16S
RUSSELL        LGT RAIN  44  44 100 NE13      30.15F
CONCORDIA      LGT RAIN  44  39  82 E10       30.21S
SALINA         CLOUDY    47  43  86 E9        30.18R
TOPEKA         CLOUDY    48  41  76 E3        30.24F



USA.gov is the U.S. government's official web portal to all federal, state and local government web resources and services.